Location: Althorst
(53.6379°N, 10.7715°E)
Time: 03:09:25
(UTC+00:00)

SMAP - Pass Details

Date: 10 December 2019
Orbit: 681 x 684 km, 98.1° (Epoch: 17 January)

Event Time Altitude Azimuth Distance (km) Brightness Sun altitude
Rises 15:36:21 0° 138° (SE) 3,041 6.3 -5.6°
Reaches altitude 10° 15:38:42 10° 130° (SE) 2,129 5.4 -5.9°
Maximum altitude 15:42:58 37° 64° (ENE) 1,065 3.6 -6.4°
Drops below altitude 10° 15:47:16 10° 358° (N) 2,143 5.4 -7.0°
Sets 15:49:38 0° 350° (N) 3,062 6.2 -7.3°
